Location: *
(49.8044°N, 4.0558°E)
Time: 23:33:02
(UTC+00:00)

USA 234 - Pass Details

Date: 09 April 2020
Orbit: 1102 x 1106 km, 123.0° (Epoch: 14 May)

Event Time Altitude Azimuth Distance (km) Brightness Sun altitude
Rises 23:17:35 0° 63° (ENE) 3,925 6.4 -31.9°
Reaches altitude 10° 23:20:07 10° 60° (ENE) 2,966 5.7 -31.9°
Maximum altitude 23:26:29 57° 344° (NNW) 1,284 3.7 -32.0°
Drops below altitude 10° 23:32:51 10° 268° (W) 2,963 5.5 -32.1°
Sets 23:35:22 0° 264° (W) 3,920 6.1 -32.1°
